Starlink 2616

operational
NORAD ID: 48695 Int'l Des: 2021-044 Owner: SPXS Country: US Constellation: starlink
LEOCIRCULAR

Starlink 2616について

説明を読み込み中...

リアルタイム位置

3D地球を読み込み中...

次回通過

高度履歴

Altitude vs Time

uPlot chart will show altitude changes over time

軌道要素

1 48695U 21044BK 26062.53971230 .00001393 00000-0 60575-4 0 9992
2 48695 53.1584 106.3442 0001321 93.0846 267.0305 15.29363866263392
Epoch: Mar 3, 2026 • Age: 25 hours

現在のステータス

高度 480.4 km
速度 7.63 km/s
衛星直下点 -9.41°S, 117.86°E
打ち上げ日 May 26, 2021
運用期間 4.7 years
タイプ internet

技術仕様

分類 Payload
質量 260.00 kg
乾燥質量 248.00 kg
総質量 260.00 kg
長さ 0.20 m
直径 2.80 m
スパン 9.00 m
形状 Box + pan
製造者 SPXS
バスタイプ Starlink
フェーズステータス In Orbit
所有者/国 SPXS/US

大規模コンステレーション

Loading constellations...